Time,TemperatureF,DewpointF,PressureIn,WindDirection,WindDirectionDegrees,WindSpeedMPH,WindSpeedGustMPH,Humidity,HourlyPrecipIn,Conditions,Clouds,dailyrainin,SoftwareType,DateUTC
2013-07-11 00:01:00,64.6,34.8,29.87,SSE,157,0.0,0.0,33,0.00,CLR,,0.00,WeatherDisplay:10.37,2013-07-11 04:01:00,
2013-07-11 00:02:00,64.6,34.8,29.87,SSE,157,0.0,0.0,33,0.00,CLR,,0.00,WeatherDisplay:10.37,2013-07-11 04:02:00,
2013-07-11 00:03:00,64.6,34.8,29.88,SSE,157,0.0,0.0,33,0.00,CLR,,0.00,WeatherDisplay:10.37,2013-07-11 04:03:00,
2013-07-11 00:04:00,64.6,34.8,29.88,SSE,157,0.0,0.0,33,0.00,CLR,,0.00,WeatherDisplay:10.37,2013-07-11 04:04:00,
2013-07-11 00:06:00,64.4,33.9,29.86,SE,135,0.0,0.0,32,0.00,CLR,,0.00,WeatherDisplay:10.37,2013-07-11 04:06:00,
2013-07-11 00:08:00,64.4,33.1,29.89,SE,135,0.0,0.0,31,0.00,CLR,,0.00,WeatherDisplay:10.37,2013-07-11 04:08:00,
2013-07-11 00:10:00,64.4,33.9,29.85,SSE,157,0.0,0.0,32,0.00,CLR,,0.00,WeatherDisplay:10.37,2013-07-11 04:10:00,
2013-07-11 00:12:00,64.2,34.5,29.85,SSE,157,0.0,0.0,33,0.00,CLR,,0.00,WeatherDisplay:10.37,2013-07-11 04:12:00,
2013-07-11 00:16:00,64.2,36.0,29.86,SSE,157,0.0,0.0,35,0.00,CLR,,0.00,WeatherDisplay:10.37,2013-07-11 04:16:00,
2013-07-11 00:17:00,64.0,35.8,29.86,SSE,157,0.0,0.0,35,0.00,CLR,,0.00,WeatherDisplay:10.37,2013-07-11 04:17:00,
2013-07-11 00:21:00,63.9,35.7,29.89,SSE,157,0.0,0.0,35,0.00,CLR,,0.00,WeatherDisplay:10.37,2013-07-11 04:21:00,
2013-07-11 00:23:00,63.9,34.9,29.88,SSE,157,0.0,0.0,34,0.00,CLR,,0.00,WeatherDisplay:10.37,2013-07-11 04:23:00,
2013-07-11 00:24:00,63.9,34.9,29.88,SSE,157,0.0,0.0,34,0.00,CLR,,0.00,WeatherDisplay:10.37,2013-07-11 04:24:00,
2013-07-11 00:25:00,63.9,34.9,29.85,SSE,157,0.0,0.0,34,0.00,CLR,,0.00,WeatherDisplay:10.37,2013-07-11 04:25:00,
2013-07-11 00:27:00,63.7,34.8,29.88,SSE,157,0.0,0.0,34,0.00,CLR,,0.00,WeatherDisplay:10.37,2013-07-11 04:27:00,
2013-07-11 00:30:00,63.5,35.3,29.86,South,180,0.0,0.0,35,0.00,CLR,,0.00,WeatherDisplay:10.37,2013-07-11 04:30:00,
2013-07-11 00:31:00,63.5,35.3,29.90,South,180,0.0,0.0,35,0.00,CLR,,0.00,WeatherDisplay:10.37,2013-07-11 04:31:00,
2013-07-11 00:32:00,63.5,36.0,29.87,South,180,0.0,0.0,36,0.00,CLR,,0.00,WeatherDisplay:10.37,2013-07-11 04:32:00,
2013-07-11 00:33:00,63.5,36.0,29.87,South,180,0.0,0.0,36,0.00,CLR,,0.00,WeatherDisplay:10.37,2013-07-11 04:33:00,
2013-07-11 00:35:00,63.5,36.0,29.86,South,180,0.0,0.0,36,0.00,CLR,,0.00,WeatherDisplay:10.37,2013-07-11 04:35:00,
2013-07-11 00:36:00,63.5,36.0,29.86,South,180,0.0,0.0,36,0.00,CLR,,0.00,WeatherDisplay:10.37,2013-07-11 04:36:00,
2013-07-11 00:38:00,63.5,36.0,29.86,SSW,202,0.0,0.0,36,0.00,CLR,,0.00,WeatherDisplay:10.37,2013-07-11 04:38:00,
2013-07-11 00:41:00,63.7,35.5,29.85,SW,225,0.0,0.0,35,0.00,CLR,,0.00,WeatherDisplay:10.37,2013-07-11 04:41:00,
2013-07-11 00:42:00,63.7,35.5,29.85,SW,225,0.0,0.0,35,0.00,CLR,,0.00,WeatherDisplay:10.37,2013-07-11 04:42:00,
2013-07-11 00:46:00,63.7,36.2,29.86,SSW,202,0.3,0.3,36,0.00,CLR,,0.00,WeatherDisplay:10.37,2013-07-11 04:46:00,
2013-07-11 00:47:00,63.7,36.2,29.89,SSW,202,0.3,0.0,36,0.00,CLR,,0.00,WeatherDisplay:10.37,2013-07-11 04:47:00,
2013-07-11 00:50:00,63.7,36.2,29.85,SSW,202,0.3,0.0,36,0.00,CLR,,0.00,WeatherDisplay:10.37,2013-07-11 04:50:00,
2013-07-11 00:52:00,63.7,36.2,29.85,SW,225,1.2,0.0,36,0.00,CLR,,0.00,WeatherDisplay:10.37,2013-07-11 04:52:00,
2013-07-11 00:53:00,63.7,36.9,29.86,NNW,337,1.2,0.0,37,0.00,CLR,,0.00,WeatherDisplay:10.37,2013-07-11 04:53:00,
2013-07-11 00:54:00,63.7,36.9,29.86,NNW,337,1.2,0.0,37,0.00,CLR,,0.00,WeatherDisplay:10.37,2013-07-11 04:54:00,
2013-07-11 00:56:00,63.9,36.4,29.89,SW,225,1.2,0.0,36,0.00,CLR,,0.00,WeatherDisplay:10.37,2013-07-11 04:56:00,
2013-07-11 00:57:00,63.9,36.4,29.89,South,180,1.2,0.0,36,0.00,CLR,,0.00,WeatherDisplay:10.37,2013-07-11 04:57:00,
2013-07-11 00:58:00,63.9,36.4,29.86,South,180,1.2,0.0,36,0.00,CLR,,0.00,WeatherDisplay:10.37,2013-07-11 04:58:00,
2013-07-11 01:00:00,63.9,37.1,29.86,South,180,1.2,0.0,37,0.00,CLR,,0.00,WeatherDisplay:10.37,2013-07-11 05:00:00,
2013-07-11 01:01:00,63.7,36.2,29.89,South,180,1.2,0.0,36,0.00,CLR,,0.00,WeatherDisplay:10.37,2013-07-11 05:01:00,
2013-07-11 01:03:00,63.7,36.2,29.85,South,180,1.2,0.0,36,0.00,CLR,,0.00,WeatherDisplay:10.37,2013-07-11 05:03:00,
2013-07-11 01:04:00,63.5,36.0,29.85,South,180,1.2,0.0,36,0.00,CLR,,0.00,WeatherDisplay:10.37,2013-07-11 05:04:00,
2013-07-11 01:07:00,63.5,36.0,29.86,South,180,1.2,0.0,36,0.00,CLR,,0.00,WeatherDisplay:10.37,2013-07-11 05:07:00,
2013-07-11 01:08:00,63.5,36.0,29.86,South,180,1.2,0.0,36,0.00,CLR,,0.00,WeatherDisplay:10.37,2013-07-11 05:08:00,
2013-07-11 01:09:00,63.5,36.0,29.88,SSW,202,1.2,0.0,36,0.00,CLR,,0.00,WeatherDisplay:10.37,2013-07-11 05:09:00,
2013-07-11 01:12:00,63.1,36.4,29.89,SSW,202,1.2,0.0,37,0.00,CLR,,0.00,WeatherDisplay:10.37,2013-07-11 05:12:00,
2013-07-11 01:14:00,63.0,36.3,29.87,SSW,202,1.2,0.0,37,0.00,CLR,,0.00,WeatherDisplay:10.37,2013-07-11 05:14:00,
2013-07-11 01:15:00,63.0,36.3,29.87,SSW,202,1.2,0.0,37,0.00,CLR,,0.00,WeatherDisplay:10.37,2013-07-11 05:15:00,
2013-07-11 01:16:00,62.8,36.1,29.88,SSW,202,1.2,0.0,37,0.00,CLR,,0.00,WeatherDisplay:10.37,2013-07-11 05:16:00,
2013-07-11 01:19:00,62.8,36.8,29.86,SSW,202,1.2,0.0,38,0.00,CLR,,0.00,WeatherDisplay:10.37,2013-07-11 05:19:00,
2013-07-11 01:20:00,62.8,36.8,29.86,SSW,202,1.2,0.0,38,0.00,CLR,,0.00,WeatherDisplay:10.37,2013-07-11 05:20:00,
2013-07-11 01:21:00,62.8,36.8,29.88,SSW,202,1.2,0.0,38,0.00,CLR,,0.00,WeatherDisplay:10.37,2013-07-11 05:21:00,
2013-07-11 01:24:00,62.8,36.8,29.90,SSW,202,1.2,0.0,38,0.00,CLR,,0.00,WeatherDisplay:10.37,2013-07-11 05:24:00,
2013-07-11 01:25:00,62.6,36.6,29.85,SSW,202,1.2,0.0,38,0.00,CLR,,0.00,WeatherDisplay:10.37,2013-07-11 05:25:00,
2013-07-11 01:26:00,62.6,36.6,29.85,SSW,202,1.2,0.0,38,0.00,CLR,,0.00,WeatherDisplay:10.37,2013-07-11 05:26:00,
2013-07-11 01:27:00,62.6,36.6,29.86,SSW,202,1.2,0.0,38,0.00,CLR,,0.00,WeatherDisplay:10.37,2013-07-11 05:27:00,
2013-07-11 01:32:00,62.2,36.3,29.86,SSW,202,1.2,0.0,38,0.00,CLR,,0.00,WeatherDisplay:10.37,2013-07-11 05:32:00,
2013-07-11 01:33:00,62.2,37.0,29.90,SSW,202,1.2,0.0,39,0.00,CLR,,0.00,WeatherDisplay:10.37,2013-07-11 05:33:00,
2013-07-11 01:35:00,62.2,37.0,29.85,SSW,202,1.2,0.0,39,0.00,CLR,,0.00,WeatherDisplay:10.37,2013-07-11 05:35:00,
2013-07-11 01:38:00,62.1,36.1,29.90,SSW,202,1.2,0.0,38,0.00,CLR,,0.00,WeatherDisplay:10.37,2013-07-11 05:38:00,
2013-07-11 01:39:00,62.1,36.1,29.85,SSW,202,1.2,0.0,38,0.00,CLR,,0.00,WeatherDisplay:10.37,2013-07-11 05:39:00,
2013-07-11 01:40:00,62.1,36.1,29.86,SSW,202,0.0,0.0,38,0.00,CLR,,0.00,WeatherDisplay:10.37,2013-07-11 05:40:00,
2013-07-11 01:41:00,62.1,36.1,29.86,SSW,202,0.0,0.0,38,0.00,CLR,,0.00,WeatherDisplay:10.37,2013-07-11 05:41:00,
2013-07-11 01:43:00,61.9,36.0,29.85,SSW,202,0.0,0.0,38,0.00,CLR,,0.00,WeatherDisplay:10.37,2013-07-11 05:43:00,
2013-07-11 01:44:00,61.9,36.0,29.85,SSW,202,0.0,0.0,38,0.00,CLR,,0.00,WeatherDisplay:10.37,2013-07-11 05:44:00,
2013-07-11 01:45:00,61.9,36.6,29.89,SSW,202,0.0,0.0,39,0.00,CLR,,0.00,WeatherDisplay:10.37,2013-07-11 05:45:00,
2013-07-11 01:46:00,62.1,36.8,29.86,SSW,202,0.0,0.0,39,0.00,CLR,,0.00,WeatherDisplay:10.37,2013-07-11 05:46:00,
2013-07-11 01:49:00,62.1,36.1,29.88,SSW,202,0.0,0.0,38,0.00,CLR,,0.00,WeatherDisplay:10.37,2013-07-11 05:49:00,
2013-07-11 01:50:00,62.1,36.1,29.88,SSW,202,0.0,0.0,38,0.00,CLR,,0.00,WeatherDisplay:10.37,2013-07-11 05:50:00,
2013-07-11 01:53:00,62.2,37.0,29.86,SSW,202,0.0,0.0,39,0.00,CLR,,0.00,WeatherDisplay:10.37,2013-07-11 05:53:00,
2013-07-11 01:54:00,62.2,37.0,29.85,SSW,202,0.0,0.0,39,0.00,CLR,,0.00,WeatherDisplay:10.37,2013-07-11 05:54:00,
2013-07-11 01:55:00,62.2,37.0,29.85,SSW,202,0.0,0.0,39,0.00,CLR,,0.00,WeatherDisplay:10.37,2013-07-11 05:55:00,
2013-07-11 01:56:00,62.2,36.3,29.87,SSW,202,0.0,0.0,38,0.00,CLR,,0.00,WeatherDisplay:10.37,2013-07-11 05:56:00,
2013-07-11 01:58:00,62.2,37.0,29.85,SSW,202,0.0,0.0,39,0.00,CLR,,0.00,WeatherDisplay:10.37,2013-07-11 05:58:00,
2013-07-11 01:59:00,62.2,37.0,29.85,SW,225,0.0,0.0,39,0.00,CLR,,0.00,WeatherDisplay:10.37,2013-07-11 05:59:00,
2013-07-11 02:01:00,62.2,37.0,29.85,SW,225,0.0,0.0,39,0.00,CLR,,0.00,WeatherDisplay:10.37,2013-07-11 06:01:00,
2013-07-11 02:02:00,62.2,37.0,29.87,WSW,247,0.0,0.0,39,0.00,CLR,,0.00,WeatherDisplay:10.37,2013-07-11 06:02:00,
2013-07-11 02:03:00,62.2,37.0,29.90,WSW,247,0.0,0.0,39,0.00,CLR,,0.00,WeatherDisplay:10.37,2013-07-11 06:03:00,
2013-07-11 02:05:00,62.2,37.0,29.85,SSW,202,0.0,0.0,39,0.00,CLR,,0.00,WeatherDisplay:10.37,2013-07-11 06:05:00,
2013-07-11 02:07:00,62.2,37.0,29.86,SSW,202,0.0,0.0,39,0.00,CLR,,0.00,WeatherDisplay:10.37,2013-07-11 06:07:00,
2013-07-11 02:08:00,62.2,37.0,29.85,SSW,202,0.0,0.0,39,0.00,CLR,,0.00,WeatherDisplay:10.37,2013-07-11 06:08:00,
2013-07-11 02:09:00,62.2,37.0,29.89,SSW,202,0.0,0.0,39,0.00,CLR,,0.00,WeatherDisplay:10.37,2013-07-11 06:09:00,
2013-07-11 02:11:00,62.2,37.0,29.89,SSW,202,0.0,0.0,39,0.00,CLR,,0.00,WeatherDisplay:10.37,2013-07-11 06:11:00,
2013-07-11 02:14:00,62.1,36.8,29.90,SSW,202,0.0,0.0,39,0.00,CLR,,0.00,WeatherDisplay:10.37,2013-07-11 06:14:00,
2013-07-11 02:15:00,62.1,36.8,29.89,SSW,202,0.0,0.0,39,0.00,CLR,,0.00,WeatherDisplay:10.37,2013-07-11 06:15:00,
2013-07-11 02:16:00,62.1,36.8,29.89,SSW,202,0.0,0.0,39,0.00,CLR,,0.00,WeatherDisplay:10.37,2013-07-11 06:16:00,
2013-07-11 02:18:00,62.1,36.8,29.85,NE,45,0.0,0.0,39,0.00,CLR,,0.00,WeatherDisplay:10.37,2013-07-11 06:18:00,
2013-07-11 02:20:00,62.1,36.8,29.87,NNW,337,0.0,0.0,39,0.00,CLR,,0.00,WeatherDisplay:10.37,2013-07-11 06:20:00,
2013-07-11 02:23:00,62.1,36.8,29.85,ENE,67,0.0,0.0,39,0.00,CLR,,0.00,WeatherDisplay:10.37,2013-07-11 06:23:00,
2013-07-11 02:25:00,62.1,36.8,29.85,NE,45,0.0,0.0,39,0.00,CLR,,0.00,WeatherDisplay:10.37,2013-07-11 06:25:00,
2013-07-11 02:27:00,62.1,36.8,29.85,NE,45,0.0,0.0,39,0.00,CLR,,0.00,WeatherDisplay:10.37,2013-07-11 06:27:00,
2013-07-11 02:28:00,62.1,36.8,29.85,NNW,337,0.0,0.0,39,0.00,CLR,,0.00,WeatherDisplay:10.37,2013-07-11 06:28:00,
2013-07-11 02:31:00,62.1,36.8,29.85,NNW,337,0.0,0.0,39,0.00,CLR,,0.00,WeatherDisplay:10.37,2013-07-11 06:31:00,
2013-07-11 02:35:00,62.1,36.8,29.89,NNW,337,0.0,0.0,39,0.00,CLR,,0.00,WeatherDisplay:10.37,2013-07-11 06:35:00,
2013-07-11 02:36:00,62.1,36.8,29.89,NNW,337,0.0,0.0,39,0.00,CLR,,0.00,WeatherDisplay:10.37,2013-07-11 06:36:00,
2013-07-11 02:37:00,62.1,36.8,29.85,NNW,337,0.0,0.0,39,0.00,CLR,,0.00,WeatherDisplay:10.37,2013-07-11 06:37:00,
2013-07-11 02:38:00,62.1,36.8,29.85,NNW,337,0.0,0.0,39,0.00,CLR,,0.00,WeatherDisplay:10.37,2013-07-11 06:38:00,
2013-07-11 02:41:00,62.1,36.8,29.87,SSW,202,0.0,0.0,39,0.00,CLR,,0.00,WeatherDisplay:10.37,2013-07-11 06:41:00,
2013-07-11 02:43:00,62.1,36.8,29.88,SSW,202,0.0,0.0,39,0.00,CLR,,0.00,WeatherDisplay:10.37,2013-07-11 06:43:00,
2013-07-11 02:45:00,61.9,36.0,29.87,SSW,202,0.0,0.0,38,0.00,CLR,,0.00,WeatherDisplay:10.37,2013-07-11 06:45:00,
2013-07-11 02:46:00,61.9,36.0,29.87,SSW,202,0.0,0.0,38,0.00,CLR,,0.00,WeatherDisplay:10.37,2013-07-11 06:46:00,
2013-07-11 02:47:00,61.7,35.8,29.90,SSW,202,0.0,0.0,38,0.00,CLR,,0.00,WeatherDisplay:10.37,2013-07-11 06:47:00,
2013-07-11 02:50:00,61.5,35.7,29.89,SSW,202,0.0,0.0,38,0.00,CLR,,0.00,WeatherDisplay:10.37,2013-07-11 06:50:00,
2013-07-11 02:51:00,61.5,36.3,29.89,SSW,202,0.0,0.0,39,0.00,CLR,,0.00,WeatherDisplay:10.37,2013-07-11 06:51:00,
2013-07-11 02:53:00,61.3,36.2,29.86,SSW,202,0.0,0.0,39,0.00,CLR,,0.00,WeatherDisplay:10.37,2013-07-11 06:53:00,
2013-07-11 02:54:00,61.3,36.2,29.86,SSW,202,0.0,0.0,39,0.00,CLR,,0.00,WeatherDisplay:10.37,2013-07-11 06:54:00,
2013-07-11 02:55:00,61.2,36.0,29.90,SSW,202,0.0,0.0,39,0.00,CLR,,0.00,WeatherDisplay:10.37,2013-07-11 06:55:00,
2013-07-11 02:57:00,61.0,35.8,29.81,SSW,202,0.0,0.0,39,0.00,CLR,,0.00,WeatherDisplay:10.37,2013-07-11 06:57:00,
2013-07-11 03:01:00,61.0,36.5,29.86,SSW,202,0.0,0.0,40,0.00,CLR,,0.00,WeatherDisplay:10.37,2013-07-11 07:01:00,
2013-07-11 03:04:00,61.0,36.5,29.81,SSW,202,0.0,0.0,40,0.00,CLR,,0.00,WeatherDisplay:10.37,2013-07-11 07:04:00,
2013-07-11 03:06:00,61.0,35.8,29.90,SSW,202,0.0,0.0,39,0.00,CLR,,0.00,WeatherDisplay:10.37,2013-07-11 07:06:00,
2013-07-11 03:07:00,61.0,35.8,29.90,SSW,202,0.0,0.0,39,0.00,CLR,,0.00,WeatherDisplay:10.37,2013-07-11 07:07:00,
2013-07-11 03:09:00,61.0,35.8,29.87,SSW,202,0.0,0.0,39,0.00,CLR,,0.00,WeatherDisplay:10.37,2013-07-11 07:09:00,
2013-07-11 03:10:00,61.0,35.8,29.84,SSW,202,0.0,0.0,39,0.00,CLR,,0.00,WeatherDisplay:10.37,2013-07-11 07:10:00,
2013-07-11 03:12:00,61.0,35.8,29.87,SSW,202,0.0,0.0,39,0.00,CLR,,0.00,WeatherDisplay:10.37,2013-07-11 07:12:00,
2013-07-11 03:13:00,61.0,35.8,29.92,SSW,202,0.0,0.0,39,0.00,CLR,,0.00,WeatherDisplay:10.37,2013-07-11 07:13:00,
2013-07-11 03:16:00,60.8,36.3,29.90,SSW,202,0.0,0.0,40,0.00,CLR,,0.00,WeatherDisplay:10.37,2013-07-11 07:16:00,
2013-07-11 03:17:00,60.8,36.3,29.90,SSW,202,0.0,0.0,40,0.00,CLR,,0.00,WeatherDisplay:10.37,2013-07-11 07:17:00,
2013-07-11 03:19:00,60.6,36.1,29.90,SSW,202,0.0,0.0,40,0.00,CLR,,0.00,WeatherDisplay:10.37,2013-07-11 07:19:00,
2013-07-11 03:20:00,60.6,36.1,29.90,SSW,202,0.0,0.0,40,0.00,CLR,,0.00,WeatherDisplay:10.37,2013-07-11 07:20:00,
2013-07-11 03:23:00,60.6,36.1,29.87,SSW,202,0.0,0.0,40,0.00,CLR,,0.00,WeatherDisplay:10.37,2013-07-11 07:23:00,
2013-07-11 03:24:00,60.6,36.1,29.83,SSW,202,0.0,0.0,40,0.00,CLR,,0.00,WeatherDisplay:10.37,2013-07-11 07:24:00,
2013-07-11 03:25:00,60.6,36.1,29.83,SSW,202,0.0,0.0,40,0.00,CLR,,0.00,WeatherDisplay:10.37,2013-07-11 07:25:00,
2013-07-11 03:26:00,60.6,35.5,29.88,SSW,202,0.0,0.0,39,0.00,CLR,,0.00,WeatherDisplay:10.37,2013-07-11 07:26:00,
2013-07-11 03:29:00,60.4,36.0,29.87,SSW,202,0.0,0.0,40,0.00,CLR,,0.00,WeatherDisplay:10.37,2013-07-11 07:29:00,